Theta_e
305 306 308 308 307 307 308 310 314 317 321 322 324 327 328 329 329 330 331 331 329 328 327 327 327 327 326 324 324 323 322 321
305 307 308 309 308 306 306 307 309 314 317 321 324 325 326 326 328 329 330 330 329 327 326 325 325 325 324 323 322 320 320 320
306 307 307 308 308 307 306 306 309 312 313 317 320 323 324 324 326 327 328 329 328 326 324 324 323 324 323 321 320 319 318 318
304 304 306 306 307 307 306 305 306 313 316 317 319 321 322 323 324 324 323 324 324 324 323 322 323 323 322 321 320 319 318 318
303 304 305 306 306 307 306 306 306 305 315 318 319 321 322 323 322 321 322 322 322 322 322 322 322 322 322 321 319 319 318 318
302 303 303 304 306 307 306 306 305 304 304 311 315 317 317 318 318 317 316 317 318 318 319 319 318 317 319 318 317 316 316 311
298 299 299 301 303 306 307 306 305 303 304 304 304 305 307 309 306 303 303 303 302 302 303 307 304 296 297 303 308 305 304 302
296 296 298 299 301 302 306 306 303 303 303 300 300 300 301 299 297 295 298 297 295 296 296 295 295 296 295 295 301 300 299 296
293 294 296 297 298 300 302 304 302 302 301 294 294 294 295 295 294 293 293 294 293 293 293 292 291 294 294 293 296 293 292 291
291 293 293 294 296 294 296 301 299 298 297 293 293 292 293 292 294 294 292 290 290 289 288 288 289 293 293 292 290 288 287 288
289 291 290 291 292 289 292 295 296 296 294 292 291 290 292 292 290 288 288 286 286 286 287 286 287 291 291 291 288 287 287 286
287 286 287 287 286 284 288 290 291 289 289 288 289 288 291 289 287 287 286 286 285 285 286 287 287 289 290 290 287 287 287 286
283 283 284 285 283 282 284 287 287 287 287 286 286 286 286 287 286 286 286 286 285 285 285 286 286 288 289 289 289 289 287 286
279 278 280 283 281 279 282 283 284 286 286 286 286 286 286 286 286 286 286 286 286 286 285 284 285 287 288 288 288 288 286 287
275 274 276 278 277 277 277 278 281 285 285 285 285 285 285 286 286 286 286 286 286 286 285 284 285 285 286 286 286 286 286 287
271 271 271 272 272 274 274 275 277 283 282 284 284 284 283 283 284 283 284 286 286 285 285 284 284 285 286 285 284 285 285 285
268 268 268 269 269 270 270 271 276 280 281 281 281 282 283 282 283 286 286 286 286 286 286 285 287 288 287 286 286 285 285 283
266 266 266 266 267 267 268 271 276 279 278 279 279 280 281 281 281 277 281 284 286 286 286 287 287 287 286 286 285 285 285 282
265 265 265 265 266 267 268 271 273 275 276 277 278 279 279 280 279 279 279 277 276 280 281 283 284 285 287 286 285 282 283 282
264 264 265 264 265 267 268 270 270 271 272 274 275 275 276 277 277 277 276 275 274 275 276 276 281 281 280 280 279 281 279 279
Wind_Speed
11 10 9 11 10 10 9 12 12 12 11 11 13 14 15 14 15 14 13 14 12 13 13 13 14 14 15 12 12 12 10 10
12 11 9 8 8 10 9 9 9 10 11 10 10 12 12 12 13 14 13 13 13 13 13 13 13 13 13 13 13 13 13 12
12 12 13 14 9 8 8 8 9 10 10 10 11 11 11 12 12 11 13 12 12 10 10 12 14 15 15 14 13 14 14 14
14 14 15 15 15 11 9 8 6 9 10 9 9 10 11 11 10 8 9 9 8 8 11 12 13 14 13 14 14 14 14 12
15 16 16 16 15 15 12 8 6 6 8 7 7 8 8 8 10 10 6 7 6 8 9 10 11 11 11 12 11 11 10 11
17 17 18 19 18 15 13 10 6 6 5 6 6 5 6 5 4 4 3 4 4 4 5 6 7 5 8 7 8 9 9 6
18 19 20 20 20 18 15 11 6 8 6 4 2 4 4 3 2 2 1 2 2 3 4 4 1 7 7 5 5 5 5 5
19 19 19 21 20 21 20 13 8 8 6 4 3 2 2 3 3 3 2 2 1 2 1 3 3 5 4 3 2 2 1 3
17 19 20 22 21 20 19 15 9 9 6 4 4 4 3 3 3 2 0 0 0 1 1 3 2 3 6 6 5 6 5 6
17 19 20 20 19 19 20 16 8 9 7 5 5 4 4 4 4 2 1 2 2 2 3 2 1 2 4 6 6 6 6 4
21 19 18 20 18 18 18 15 13 7 5 2 3 2 4 4 4 2 2 3 3 4 4 4 4 4 2 4 2 4 5 5
17 18 19 20 18 19 16 13 9 8 6 3 2 2 4 3 1 3 4 5 5 5 4 5 3 5 6 5 3 3 3 3
17 18 18 18 12 15 16 11 9 7 4 2 1 2 2 5 2 3 5 6 5 4 4 3 3 6 8 9 8 7 4 3
18 21 17 15 10 14 12 13 10 8 4 1 1 2 2 4 5 4 3 4 4 4 4 3 2 4 10 10 10 10 5 3
19 20 18 13 13 12 13 12 12 9 3 1 1 3 3 2 2 3 3 4 3 3 4 3 2 2 3 4 4 8 6 8
16 16 16 15 14 13 13 13 11 8 2 1 2 3 4 4 3 3 3 3 4 3 3 3 3 2 5 5 4 4 6 6
15 15 15 14 14 13 13 12 12 7 2 1 1 2 4 6 8 15 14 16 15 11 6 2 7 10 11 12 13 12 8 4
14 14 13 13 13 13 13 12 10 4 1 1 2 2 5 5 5 7 10 21 18 13 13 13 6 12 13 13 12 9 6 4
11 11 12 12 12 14 13 10 9 6 8 4 4 4 4 4 4 4 5 6 5 14 17 17 17 16 8 12 10 5 5 3
9 12 12 12 14 14 12 10 11 9 7 5 5 6 6 5 4 6 7 7 7 6 10 14 12 14 16 16 6 5 5 5
Wind_Direction
340 337 329 325 315 307 291 282 273 257 244 243 236 234 237 239 242 233 232 225 220 218 218 219 224 219 213 218 220 219 218 221
330 325 317 314 309 310 297 287 279 265 254 242 237 240 241 240 238 242 237 231 223 219 219 218 218 220 215 215 219 221 220 219
333 339 335 333 328 310 305 296 290 280 266 245 240 232 236 240 241 240 241 237 232 219 216 219 220 221 216 213 209 214 213 218
347 338 337 331 326 319 309 298 291 290 276 263 246 235 234 235 237 234 241 242 222 228 216 217 228 228 222 215 215 216 218 217
342 341 338 331 326 319 307 293 291 290 281 273 271 262 253 249 248 247 240 245 231 229 227 228 229 228 228 222 221 224 224 222
348 343 336 333 327 316 309 295 280 280 275 277 270 287 291 298 294 313 318 302 289 251 232 232 234 231 225 227 219 221 225 213
334 332 332 329 323 316 305 299 264 264 256 257 274 297 278 283 304 308 307 333 355 315 312 271 21 20 344 280 210 216 207 198
332 331 326 324 319 312 307 298 264 255 249 225 251 259 315 302 326 321 310 13 2 22 72 90 69 35 33 53 136 148 121 108
329 324 323 318 316 313 308 291 266 250 236 203 227 226 195 237 223 209 224 150 43 45 78 120 83 90 88 79 88 82 77 92
321 319 319 316 324 320 311 303 271 256 234 190 218 220 195 209 212 168 166 84 76 57 47 67 50 85 120 113 116 113 100 95
319 317 319 322 326 318 310 310 295 309 323 280 233 218 216 205 162 121 107 95 85 59 41 39 35 49 67 106 94 110 116 93
318 315 318 321 320 314 314 313 331 317 303 289 227 201 216 117 97 130 122 108 89 81 53 48 37 54 67 86 98 109 97 108
317 314 316 314 315 310 311 321 315 303 288 279 224 149 129 134 99 113 126 117 108 111 93 58 40 68 65 80 91 101 103 102
320 315 314 316 319 308 313 318 312 296 282 268 81 89 117 140 136 129 129 131 136 127 121 106 52 80 79 81 85 91 91 101
321 315 316 325 321 308 313 315 311 295 289 342 108 108 78 83 100 138 150 135 128 127 128 124 95 89 87 76 67 67 78 90
315 315 316 325 320 319 321 318 308 298 311 36 54 91 82 57 58 81 42 80 117 91 111 144 147 125 119 118 106 89 94 99
314 315 320 322 321 321 321 318 308 296 304 39 70 93 101 101 92 77 84 85 89 91 100 88 124 132 119 111 113 112 100 80
319 319 322 327 322 323 322 317 316 318 21 34 53 91 116 116 114 106 69 67 68 78 72 62 107 123 111 110 110 106 103 98
321 327 331 333 329 332 331 340 355 0 24 27 37 51 63 80 94 104 89 73 54 43 44 48 53 52 130 126 111 89 73 80
340 348 347 342 339 341 341 4 21 19 22 21 43 56 57 56 50 69 75 70 54 36 26 14 15 47 42 41 40 54 59 28